When you browse on this site, cookies collect data to enhance your experience and personalize the content and advertising you see.
Visit our Privacy Policy to learn more. By continuing to use the site, you agree to this use of cookies and data.
  • In Austria
  • List of Countries
  • For 7 days
  • Water Temperature
  • Weather Map
  • News
  • Weather Widgets
  • user-avatar
    Login

    Hourly Weather Tezontepec de Aldama

    Today, 23 October, Wednesday

    Time Temperature Precipitation Wind Pressure Humidity
    00:00 +14°C° 0.8 mm 0 mps 600 mmHg 93%
    01:00 +15°C° 0.8 mm 1 mps 600 mmHg 94%
    02:00 +15°C° 0.8 mm 1 mps 600 mmHg 95%
    03:00 +15°C° 0.1 mm 1 mps 600 mmHg 95%
    04:00 +15°C° 0.1 mm 1 mps 599 mmHg 95%
    05:00 +15°C° 0.1 mm 1 mps 599 mmHg 95%
    06:00 +15°C° 0.1 mm 1 mps 600 mmHg 92%
    07:00 +16°C° 0.1 mm 1 mps 600 mmHg 89%
    08:00 +16°C° 0.1 mm 1 mps 601 mmHg 86%
    09:00 +17°C° 0.1 mm 2 mps 601 mmHg 80%
    10:00 +18°C° 0.1 mm 2 mps 601 mmHg 75%
    11:00 +20°C° 0.1 mm 2 mps 601 mmHg 69%
    12:00 +20°C° 0 mm 3 mps 600 mmHg 66%
    13:00 +21°C° 0 mm 3 mps 600 mmHg 63%
    14:00 +21°C° 0 mm 3 mps 599 mmHg 60%
    15:00 +20°C° 0 mm 3 mps 599 mmHg 66%
    16:00 +19°C° 0 mm 3 mps 599 mmHg 72%
    17:00 +18°C° 0 mm 3 mps 598 mmHg 78%
    18:00 +17°C° 0 mm 2 mps 598 mmHg 83%
    19:00 +16°C° 0 mm 2 mps 599 mmHg 89%
    20:00 +15°C° 0 mm 1 mps 599 mmHg 95%
    21:00 +14°C° 0 mm 1 mps 599 mmHg 95%
    22:00 +14°C° 0 mm 1 mps 598 mmHg 96%
    23:00 +13°C° 0 mm 0 mps 598 mmHg 96%

    Tomorrow, 24 October, Thursday

    Time Temperature Precipitation Wind Pressure Humidity
    00:00 +13°C° 0 mm 0 mps 598 mmHg 96%
    01:00 +13°C° 0 mm 0 mps 597 mmHg 95%
    02:00 +12°C° 0 mm 0 mps 597 mmHg 95%
    03:00 +12°C° 0 mm 0 mps 597 mmHg 94%
    04:00 +12°C° 0 mm 0 mps 597 mmHg 94%
    05:00 +12°C° 0 mm 0 mps 597 mmHg 94%
    06:00 +13°C° 0 mm 0 mps 597 mmHg 88%
    07:00 +15°C° 0 mm 0 mps 598 mmHg 82%
    08:00 +16°C° 0 mm 0 mps 599 mmHg 77%
    09:00 +20°C° 0 mm 1 mps 599 mmHg 69%
    10:00 +21°C° 0 mm 1 mps 600 mmHg 62%
    11:00 +23°C° 0 mm 2 mps 600 mmHg 55%
    12:00 +23°C° 0 mm 2 mps 599 mmHg 53%
    13:00 +24°C° 0 mm 3 mps 599 mmHg 52%
    14:00 +23°C° 0 mm 4 mps 598 mmHg 51%
    15:00 +22°C° 0.1 mm 3 mps 598 mmHg 59%
    16:00 +21°C° 0.1 mm 3 mps 598 mmHg 66%
    17:00 +19°C° 0.1 mm 3 mps 597 mmHg 74%
    18:00 +18°C° 0.8 mm 2 mps 597 mmHg 79%
    19:00 +17°C° 0.8 mm 2 mps 598 mmHg 85%
    20:00 +18°C° 0.8 mm 1 mps 598 mmHg 91%
    21:00 +16°C° 0.3 mm 1 mps 598 mmHg 92%
    22:00 +16°C° 0.3 mm 1 mps 598 mmHg 93%
    23:00 +16°C° 0.3 mm 1 mps 598 mmHg 94%

    Day after tomorrow, 25 October, Friday

    Time Temperature Precipitation Wind Pressure Humidity
    00:00 +15°C° 0.1 mm 0 mps 598 mmHg 94%
    01:00 +14°C° 0.1 mm 0 mps 597 mmHg 94%
    02:00 +14°C° 0.1 mm 0 mps 597 mmHg 95%
    03:00 +14°C° 0.1 mm 0 mps 597 mmHg 94%
    04:00 +15°C° 0.1 mm 1 mps 597 mmHg 94%
    05:00 +15°C° 0.1 mm 1 mps 598 mmHg 94%
    06:00 +16°C° 0 mm 1 mps 598 mmHg 90%
    07:00 +16°C° 0 mm 1 mps 599 mmHg 86%
    08:00 +18°C° 0 mm 1 mps 600 mmHg 82%
    09:00 +19°C° 0 mm 2 mps 600 mmHg 75%
    10:00 +20°C° 0 mm 3 mps 601 mmHg 68%
    11:00 +21°C° 0 mm 3 mps 601 mmHg 60%
    12:00 +21°C° 0.3 mm 4 mps 600 mmHg 64%
    13:00 +20°C° 0.3 mm 5 mps 600 mmHg 67%
    14:00 +20°C° 0.3 mm 5 mps 599 mmHg 71%
    15:00 +17°C° 0.2 mm 5 mps 599 mmHg 76%
    16:00 +16°C° 0.2 mm 5 mps 598 mmHg 81%
    17:00 +14°C° 0.2 mm 4 mps 598 mmHg 86%
    18:00 +14°C° 0.4 mm 4 mps 599 mmHg 86%
    19:00 +14°C° 0.4 mm 3 mps 599 mmHg 87%
    20:00 +14°C° 0.4 mm 2 mps 599 mmHg 87%
    21:00 +14°C° 0.7 mm 2 mps 599 mmHg 89%
    22:00 +14°C° 0.7 mm 2 mps 599 mmHg 90%
    23:00 +14°C° 0.7 mm 2 mps 599 mmHg 91%

    26 October, Saturday

    Time Temperature Precipitation Wind Pressure Humidity
    00:00 +14°C° 0.1 mm 2 mps 599 mmHg 92%
    01:00 +14°C° 0.1 mm 2 mps 599 mmHg 92%
    02:00 +13°C° 0.1 mm 2 mps 598 mmHg 92%
    03:00 +13°C° 0 mm 1 mps 598 mmHg 92%
    04:00 +13°C° 0 mm 1 mps 598 mmHg 92%
    05:00 +13°C° 0 mm 1 mps 599 mmHg 93%
    06:00 +14°C° 0 mm 1 mps 599 mmHg 89%
    07:00 +15°C° 0 mm 1 mps 599 mmHg 85%
    08:00 +15°C° 0 mm 1 mps 600 mmHg 81%
    09:00 +18°C° 0 mm 1 mps 600 mmHg 75%
    10:00 +18°C° 0 mm 0 mps 600 mmHg 69%
    11:00 +19°C° 0 mm 0 mps 600 mmHg 62%
    12:00 +22°C° 0.1 mm 1 mps 600 mmHg 60%
    13:00 +23°C° 0.1 mm 2 mps 600 mmHg 58%
    14:00 +22°C° 0.1 mm 3 mps 599 mmHg 56%
    15:00 +21°C° 0.5 mm 2 mps 599 mmHg 64%
    16:00 +19°C° 0.5 mm 2 mps 599 mmHg 72%
    17:00 +18°C° 0.5 mm 2 mps 598 mmHg 79%
    18:00 +18°C° 0.5 mm 1 mps 599 mmHg 82%
    19:00 +18°C° 0.5 mm 1 mps 599 mmHg 84%
    20:00 +16°C° 0.5 mm 1 mps 599 mmHg 86%
    21:00 +16°C° 0.2 mm 1 mps 599 mmHg 88%
    22:00 +15°C° 0.2 mm 1 mps 598 mmHg 89%
    23:00 +14°C° 0.2 mm 0 mps 598 mmHg 90%

    27 October, Sunday

    Time Temperature Precipitation Wind Pressure Humidity
    00:00 +14°C° 0 mm 0 mps 598 mmHg 90%
    01:00 +15°C° 0 mm 1 mps 597 mmHg 90%
    02:00 +15°C° 0 mm 1 mps 597 mmHg 90%
    03:00 +14°C° 0 mm 1 mps 597 mmHg 90%
    04:00 +14°C° 0 mm 1 mps 597 mmHg 90%
    05:00 +14°C° 0 mm 1 mps 597 mmHg 90%
    06:00 +14°C° 0 mm 0 mps 598 mmHg 84%
    07:00 +16°C° 0 mm 0 mps 599 mmHg 78%
    08:00 +18°C° 0 mm 0 mps 600 mmHg 71%
    09:00 +21°C° 0 mm 1 mps 600 mmHg 66%
    10:00 +22°C° 0 mm 1 mps 600 mmHg 61%
    11:00 +23°C° 0 mm 1 mps 600 mmHg 56%
    12:00 +24°C° 0.3 mm 2 mps 600 mmHg 55%
    13:00 +24°C° 0.3 mm 2 mps 599 mmHg 55%
    14:00 +24°C° 0.3 mm 3 mps 599 mmHg 55%
    15:00 +22°C° 0.9 mm 3 mps 598 mmHg 62%
    16:00 +20°C° 0.9 mm 2 mps 598 mmHg 69%
    17:00 +19°C° 0.9 mm 2 mps 598 mmHg 77%
    18:00 +18°C° 0.2 mm 2 mps 598 mmHg 80%
    19:00 +19°C° 0.2 mm 1 mps 598 mmHg 83%
    20:00 +18°C° 0.2 mm 1 mps 599 mmHg 86%
    21:00 +16°C° 0 mm 1 mps 598 mmHg 86%
    22:00 +15°C° 0 mm 0 mps 598 mmHg 87%
    23:00 +15°C° 0 mm 0 mps 598 mmHg 88%

    28 October, Monday

    Time Temperature Precipitation Wind Pressure Humidity
    00:00 +14°C° 0 mm 0 mps 598 mmHg 88%
    01:00 +14°C° 0 mm 0 mps 598 mmHg 88%
    02:00 +13°C° 0 mm 0 mps 597 mmHg 88%
    03:00 +13°C° 0 mm 0 mps 597 mmHg 88%
    04:00 +13°C° 0 mm 0 mps 597 mmHg 87%
    05:00 +13°C° 0 mm 0 mps 597 mmHg 87%
    06:00 +14°C° 0 mm 0 mps 598 mmHg 80%
    07:00 +16°C° 0 mm 0 mps 600 mmHg 72%
    08:00 +18°C° 0 mm 0 mps 601 mmHg 65%
    09:00 +20°C° 0 mm 2 mps 601 mmHg 58%
    10:00 +21°C° 0 mm 3 mps 601 mmHg 52%
    11:00 +23°C° 0 mm 4 mps 602 mmHg 46%
    12:00 +22°C° 0 mm 5 mps 601 mmHg 49%
    13:00 +22°C° 0 mm 6 mps 600 mmHg 53%
    14:00 +21°C° 0 mm 6 mps 600 mmHg 56%
    15:00 +19°C° 0 mm 6 mps 599 mmHg 64%
    16:00 +17°C° 0 mm 5 mps 599 mmHg 71%
    17:00 +15°C° 0 mm 4 mps 599 mmHg 79%
    18:00 +14°C° 0 mm 4 mps 599 mmHg 79%
    19:00 +14°C° 0 mm 3 mps 600 mmHg 80%
    20:00 +14°C° 0 mm 3 mps 600 mmHg 80%
    21:00 +14°C° 0 mm 3 mps 600 mmHg 81%
    22:00 +14°C° 0 mm 2 mps 600 mmHg 82%
    23:00 +14°C° 0 mm 2 mps 600 mmHg 83%

    29 October, Tuesday

    Time Temperature Precipitation Wind Pressure Humidity
    00:00 +14°C° 0 mm 2 mps 600 mmHg 84%
    01:00 +14°C° 0 mm 2 mps 600 mmHg 85%
    02:00 +14°C° 0 mm 2 mps 600 mmHg 86%
    03:00 +14°C° 0 mm 2 mps 600 mmHg 87%
    04:00 +14°C° 0 mm 1 mps 600 mmHg 87%
    05:00 +13°C° 0 mm 1 mps 600 mmHg 88%
    06:00 +14°C° 0 mm 2 mps 600 mmHg 85%
    07:00 +14°C° 0 mm 2 mps 601 mmHg 83%
    08:00 +14°C° 0 mm 2 mps 601 mmHg 80%
    09:00 +15°C° 0 mm 2 mps 601 mmHg 77%
    10:00 +16°C° 0 mm 2 mps 601 mmHg 74%
    11:00 +16°C° 0 mm 2 mps 601 mmHg 72%
    12:00 +17°C° 0 mm 2 mps 601 mmHg 69%
    13:00 +18°C° 0 mm 2 mps 600 mmHg 66%
    14:00 +19°C° 0 mm 2 mps 600 mmHg 63%
    15:00 +18°C° 0 mm 2 mps 600 mmHg 69%
    16:00 +17°C° 0 mm 2 mps 599 mmHg 75%
    17:00 +14°C° 0 mm 3 mps 599 mmHg 81%
    18:00 +15°C° 0 mm 2 mps 599 mmHg 83%
    19:00 +14°C° 0 mm 2 mps 600 mmHg 86%
    20:00 +13°C° 0 mm 2 mps 600 mmHg 88%
    21:00 +13°C° 0 mm 1 mps 600 mmHg 87%
    22:00 +13°C° 0 mm 1 mps 600 mmHg 85%
    23:00 +13°C° 0 mm 1 mps 600 mmHg 84%
    Show more